VJC600 VVTS-VVCR

Flight info

Callsign VJC600
Flight time -1h -9m
Altitude 25000
Route BIXEX5B BIXEX W15 BANKE BANKE1A
Aircraft A21N/M-SDE2E3FGHIRWXY/LB1

Departure

Time 2026-05-03 21:48
Airport Tan Son Nhat International Airport (VVTS)

Arrival

Time 2026-05-03 20:38
Airport Cam Ranh International Airport / Cam Ranh Air Base (VVCR)
Time Latitude Longitude Altitude Speed Heading
2026-05-03 20:15 11.29342 107.50475 24906 ft 485 kts 64°
2026-05-03 20:15 11.30852 107.53562 24906 ft 485 kts 64°
2026-05-03 20:15 11.32362 107.56643 24906 ft 485 kts 64°
2026-05-03 20:15 11.33879 107.59738 24907 ft 485 kts 64°
2026-05-03 20:16 11.35371 107.62772 24920 ft 485 kts 64°
2026-05-03 20:16 11.36882 107.65850 24921 ft 485 kts 64°
2026-05-03 20:16 11.38390 107.68930 24922 ft 485 kts 64°
2026-05-03 20:16 11.39900 107.72008 24923 ft 485 kts 64°
2026-05-03 20:17 11.41412 107.75095 24926 ft 485 kts 64°
2026-05-03 20:17 11.42920 107.78176 24927 ft 485 kts 64°
2026-05-03 20:17 11.44426 107.81255 24928 ft 485 kts 64°
2026-05-03 20:17 11.45935 107.84352 24928 ft 485 kts 64°
2026-05-03 20:18 11.47425 107.87395 24932 ft 485 kts 64°
2026-05-03 20:18 11.48935 107.90471 24944 ft 486 kts 64°
2026-05-03 20:18 11.50446 107.93559 24945 ft 486 kts 64°
2026-05-03 20:18 11.51954 107.96648 24945 ft 486 kts 64°
2026-05-03 20:19 11.53462 107.99737 24945 ft 486 kts 64°
2026-05-03 20:19 11.54971 108.02828 24946 ft 486 kts 64°
2026-05-03 20:19 11.56478 108.05918 24947 ft 486 kts 64°
2026-05-03 20:19 11.57990 108.09021 24947 ft 486 kts 64°
2026-05-03 20:20 11.59478 108.12068 24948 ft 486 kts 64°
2026-05-03 20:20 11.61179 108.15056 24956 ft 487 kts 56°
2026-05-03 20:20 11.63122 108.17885 24959 ft 487 kts 56°
2026-05-03 20:20 11.65083 108.20715 24958 ft 487 kts 55°
2026-05-03 20:21 11.67041 108.23533 24960 ft 487 kts 55°
2026-05-03 20:21 11.69005 108.26361 24961 ft 487 kts 55°
2026-05-03 20:21 11.70965 108.29181 24962 ft 488 kts 55°
2026-05-03 20:21 11.72933 108.32011 24978 ft 488 kts 55°
2026-05-03 20:22 11.74770 108.34867 24971 ft 487 kts 62°
2026-05-03 20:22 11.76111 108.38031 24946 ft 483 kts 72°
2026-05-03 20:22 11.77066 108.41287 24158 ft 477 kts 75°
2026-05-03 20:22 11.77958 108.44574 22920 ft 480 kts 75°
2026-05-03 20:23 11.78845 108.47852 21972 ft 475 kts 75°
2026-05-03 20:23 11.79732 108.51075 21235 ft 467 kts 75°
2026-05-03 20:23 11.80602 108.54213 20465 ft 459 kts 75°
2026-05-03 20:23 11.81470 108.57334 19655 ft 453 kts 75°
2026-05-03 20:24 11.82331 108.60400 18897 ft 446 kts 75°
2026-05-03 20:24 11.83182 108.63432 18142 ft 439 kts 75°
2026-05-03 20:24 11.84017 108.66413 17368 ft 435 kts 75°
2026-05-03 20:24 11.84855 108.69380 16735 ft 431 kts 75°
2026-05-03 20:25 11.85670 108.72258 16106 ft 427 kts 75°
2026-05-03 20:25 11.86496 108.75172 15470 ft 423 kts 75°
2026-05-03 20:25 11.87312 108.78047 14847 ft 420 kts 75°
2026-05-03 20:25 11.88119 108.80904 14222 ft 417 kts 75°
2026-05-03 20:26 11.88926 108.83748 13584 ft 413 kts 75°
2026-05-03 20:26 11.89690 108.86547 12855 ft 405 kts 78°
2026-05-03 20:26 11.90195 108.89312 12361 ft 400 kts 81°
2026-05-03 20:26 11.90670 108.92102 12109 ft 398 kts 81°
2026-05-03 20:27 11.91147 108.94880 11931 ft 390 kts 80°
2026-05-03 20:27 11.91610 108.97550 11710 ft 372 kts 80°
2026-05-03 20:27 11.92052 109.00095 11489 ft 355 kts 80°
2026-05-03 20:27 11.92470 109.02503 11305 ft 340 kts 80°
2026-05-03 20:28 11.92872 109.04836 11129 ft 325 kts 80°
2026-05-03 20:28 11.93255 109.07061 10966 ft 310 kts 80°
2026-05-03 20:28 11.93623 109.09194 10802 ft 297 kts 79°
2026-05-03 20:28 11.93970 109.11216 10493 ft 290 kts 79°
2026-05-03 20:29 11.94319 109.13247 10046 ft 288 kts 79°
2026-05-03 20:29 11.94662 109.15248 9659 ft 284 kts 79°
2026-05-03 20:29 11.95002 109.17237 9162 ft 284 kts 79°
2026-05-03 20:29 11.95343 109.19227 8677 ft 283 kts 79°
2026-05-03 20:30 11.95602 109.21191 8225 ft 282 kts 88°
2026-05-03 20:30 11.95264 109.23174 7837 ft 280 kts 107°
2026-05-03 20:30 11.94602 109.25009 7466 ft 277 kts 109°
2026-05-03 20:30 11.93913 109.26852 7071 ft 278 kts 109°
2026-05-03 20:31 11.93236 109.28699 6702 ft 279 kts 109°
2026-05-03 20:31 11.92472 109.30521 6322 ft 278 kts 119°
2026-05-03 20:31 11.91140 109.31937 5919 ft 279 kts 146°
2026-05-03 20:31 11.89338 109.32551 5538 ft 280 kts 174°
2026-05-03 20:32 11.87414 109.32263 5189 ft 282 kts 197°
2026-05-03 20:32 11.85598 109.31567 4989 ft 274 kts 200°
2026-05-03 20:32 11.83871 109.30877 4951 ft 257 kts 199°
2026-05-03 20:32 11.82253 109.30248 4947 ft 240 kts 199°
2026-05-03 20:33 11.80737 109.29560 4953 ft 241 kts 212°
2026-05-03 20:33 11.79635 109.28283 4958 ft 244 kts 246°
2026-05-03 20:33 11.79388 109.26606 4802 ft 240 kts 280°
2026-05-03 20:33 11.79963 109.25018 4434 ft 238 kts 298°
2026-05-03 20:34 11.80751 109.23524 4089 ft 238 kts 299°
2026-05-03 20:34 11.81516 109.22055 3755 ft 237 kts 298°
2026-05-03 20:34 11.82271 109.20558 3420 ft 236 kts 297°
2026-05-03 20:34 11.83009 109.19065 3073 ft 234 kts 298°
2026-05-03 20:35 11.83984 109.17766 2758 ft 230 kts 327°
2026-05-03 20:35 11.85473 109.17265 2667 ft 227 kts
2026-05-03 20:35 11.86965 109.17556 2559 ft 215 kts 21°
2026-05-03 20:35 11.88297 109.18115 2390 ft 200 kts 24°
2026-05-03 20:36 11.89563 109.18650 2089 ft 191 kts 21°
2026-05-03 20:36 11.90783 109.19087 1811 ft 180 kts 19°
2026-05-03 20:36 11.91932 109.19489 1530 ft 173 kts 18°
2026-05-03 20:36 11.93051 109.19879 1251 ft 168 kts 18°
2026-05-03 20:37 11.94141 109.20259 994 ft 162 kts 18°
2026-05-03 20:37 11.95192 109.20627 769 ft 156 kts 17°
2026-05-03 20:37 11.96196 109.20975 484 ft 148 kts 16°
2026-05-03 20:37 11.97163 109.21311 274 ft 147 kts 16°
2026-05-03 20:38 11.98135 109.21647 94 ft 147 kts 16°
2026-05-03 20:38 11.99047 109.21966 56 ft 119 kts 17°
2026-05-03 20:38 11.99667 109.22178 58 ft 69 kts 18°
2026-05-03 20:38 11.99885 109.22252 52 ft 15 kts 348°
2026-05-03 20:39 11.99928 109.22191 58 ft 8 kts 291°
2026-05-03 20:39 11.99951 109.22127 56 ft 11 kts 290°
2026-05-03 20:39 11.99978 109.22043 57 ft 14 kts 288°
2026-05-03 20:39 12.00011 109.21942 57 ft 16 kts 288°
2026-05-03 20:40 12.00049 109.21828 59 ft 18 kts 289°
2026-05-03 20:40 12.00092 109.21703 54 ft 19 kts 289°
2026-05-03 20:40 12.00135 109.21567 54 ft 21 kts 287°
2026-05-03 20:40 12.00188 109.21475 56 ft 15 kts 356°
2026-05-03 20:41 12.00269 109.21501 58 ft 11 kts 20°
2026-05-03 20:41 12.00347 109.21528 58 ft 13 kts 18°
2026-05-03 20:41 12.00433 109.21557 58 ft 9 kts 19°
2026-05-03 20:41 12.00452 109.21589 52 ft 1 kts 108°
2026-05-03 20:42 12.00447 109.21605 55 ft 1 kts 106°
2026-05-03 20:42 12.00447 109.21606 55 ft 0 kts 106°
2026-05-03 20:42 12.00443 109.21618 58 ft 2 kts 109°
2026-05-03 21:14 12.00435 109.21641 57 ft 6 kts 111°
2026-05-03 21:14 12.00420 109.21685 53 ft 8 kts 109°
2026-05-03 21:14 12.00369 109.21715 56 ft 11 kts 194°
2026-05-03 21:15 12.00286 109.21683 58 ft 14 kts 199°
2026-05-03 21:15 12.00186 109.21649 58 ft 15 kts 198°
2026-05-03 21:15 12.00098 109.21681 56 ft 16 kts 99°
2026-05-03 21:15 12.00053 109.21773 54 ft 14 kts 171°
2026-05-03 21:16 11.99959 109.21751 56 ft 14 kts 199°
2026-05-03 21:16 11.99862 109.21716 58 ft 15 kts 199°
2026-05-03 21:16 11.99760 109.21681 55 ft 16 kts 199°
2026-05-03 21:16 11.99654 109.21645 56 ft 17 kts 198°
2026-05-03 21:17 11.99540 109.21606 58 ft 18 kts 200°
2026-05-03 21:17 11.99460 109.21577 58 ft 19 kts 199°
2026-05-03 21:17 11.99288 109.21518 58 ft 20 kts 199°
2026-05-03 21:17 11.99152 109.21471 58 ft 21 kts 199°
2026-05-03 21:18 11.99008 109.21420 52 ft 22 kts 199°
2026-05-03 21:18 11.98859 109.21369 56 ft 23 kts 198°
2026-05-03 21:18 11.98702 109.21316 58 ft 24 kts 199°
2026-05-03 21:18 11.98575 109.21288 55 ft 13 kts 124°
2026-05-03 21:19 11.98553 109.21381 52 ft 14 kts 108°
2026-05-03 21:19 11.98536 109.21483 59 ft 16 kts 53°
2026-05-03 21:19 11.98650 109.21531 59 ft 27 kts 18°
2026-05-03 21:19 11.99070 109.21677 57 ft 100 kts 19°
2026-05-03 21:20 11.99922 109.21970 60 ft 155 kts 18°
2026-05-03 21:20 12.00990 109.22354 457 ft 161 kts 18°
2026-05-03 21:20 12.02033 109.22728 1018 ft 162 kts 17°
2026-05-03 21:20 12.03147 109.23103 1384 ft 177 kts 17°
2026-05-03 21:21 12.04369 109.23513 1804 ft 193 kts 19°
2026-05-03 21:21 12.05693 109.23978 2281 ft 208 kts 19°
2026-05-03 21:21 12.07119 109.24470 2773 ft 225 kts 20°
2026-05-03 21:21 12.08703 109.24931 3154 ft 248 kts
2026-05-03 21:22 12.10490 109.24850 3640 ft 266 kts 349°
2026-05-03 21:22 12.12310 109.24395 4374 ft 272 kts 347°
2026-05-03 21:22 12.14155 109.23906 5142 ft 275 kts 347°
2026-05-03 21:22 12.16021 109.23423 5926 ft 278 kts 348°
2026-05-03 21:23 12.17876 109.22952 6667 ft 279 kts 348°
2026-05-03 21:23 12.19772 109.22448 7381 ft 283 kts 343°
2026-05-03 21:23 12.21504 109.21445 8055 ft 290 kts 318°
2026-05-03 21:23 12.22686 109.19754 8741 ft 296 kts 300°
2026-05-03 21:24 12.23612 109.17881 9430 ft 300 kts 298°
2026-05-03 21:24 12.24545 109.15959 10077 ft 304 kts 298°
2026-05-03 21:24 12.25526 109.13981 10399 ft 320 kts 298°
2026-05-03 21:24 12.26566 109.11901 10662 ft 338 kts 297°
2026-05-03 21:25 12.27353 109.09570 10879 ft 356 kts 281°
2026-05-03 21:25 12.27428 109.06983 11091 ft 373 kts 262°
2026-05-03 21:25 12.26648 109.04403 11324 ft 386 kts 242°
2026-05-03 21:25 12.25154 109.02144 11788 ft 390 kts 231°
2026-05-03 21:26 12.23459 108.99963 12407 ft 392 kts 230°
2026-05-03 21:26 12.21765 108.97763 13047 ft 393 kts 230°
2026-05-03 21:26 12.20089 108.95553 13662 ft 395 kts 230°
2026-05-03 21:26 12.18408 108.93316 14174 ft 397 kts 231°
2026-05-03 21:27 12.16717 108.91049 14668 ft 400 kts 231°
2026-05-03 21:27 12.15043 108.88800 15146 ft 403 kts 231°
2026-05-03 21:27 12.13334 108.86504 15618 ft 406 kts 231°
2026-05-03 21:27 12.11614 108.84190 16124 ft 409 kts 231°
2026-05-03 21:28 12.09884 108.81860 16598 ft 412 kts 231°
2026-05-03 21:28 12.08143 108.79516 17066 ft 415 kts 231°
2026-05-03 21:28 12.06411 108.77183 17539 ft 418 kts 232°
2026-05-03 21:28 12.04643 108.74805 18013 ft 421 kts 231°
2026-05-03 21:29 12.02862 108.72410 18447 ft 425 kts 232°
2026-05-03 21:29 12.01062 108.69989 18865 ft 427 kts 232°
2026-05-03 21:29 11.99274 108.67584 19273 ft 430 kts 232°
2026-05-03 21:29 11.97460 108.65145 19667 ft 432 kts 232°
2026-05-03 21:30 11.95640 108.62699 20059 ft 434 kts 232°
2026-05-03 21:30 11.93804 108.60229 20448 ft 436 kts 232°
2026-05-03 21:30 11.91962 108.57755 20825 ft 439 kts 232°
2026-05-03 21:30 11.90103 108.55259 21200 ft 441 kts 232°
2026-05-03 21:31 11.88242 108.52761 21584 ft 443 kts 232°
2026-05-03 21:31 11.86389 108.50271 21958 ft 445 kts 232°
2026-05-03 21:31 11.84507 108.47748 22308 ft 448 kts 232°
2026-05-03 21:31 11.82611 108.45201 22697 ft 450 kts 232°
2026-05-03 21:32 11.80701 108.42638 23076 ft 453 kts 232°
2026-05-03 21:32 11.78784 108.40071 23442 ft 455 kts 232°
2026-05-03 21:32 11.76884 108.37526 23753 ft 457 kts 232°
2026-05-03 21:32 11.74976 108.34922 23967 ft 457 kts 233°
2026-05-03 21:33 11.73156 108.32309 24001 ft 450 kts 234°
2026-05-03 21:33 11.71349 108.29703 23991 ft 450 kts 234°
2026-05-03 21:33 11.69537 108.27090 23979 ft 450 kts 234°
2026-05-03 21:33 11.67717 108.24469 23972 ft 450 kts 234°
2026-05-03 21:34 11.65902 108.21864 23969 ft 450 kts 234°
2026-05-03 21:34 11.64703 108.20141 23965 ft 450 kts 234°
2026-05-03 21:34 11.62896 108.17535 23966 ft 450 kts 234°
2026-05-03 21:34 11.60491 108.14078 23965 ft 450 kts 234°
2026-05-03 21:35 11.58680 108.11475 23952 ft 450 kts 234°
2026-05-03 21:35 11.57454 108.09710 23952 ft 450 kts 234°
2026-05-03 21:35 11.55655 108.07126 23952 ft 450 kts 234°
2026-05-03 21:35 11.53839 108.04525 23951 ft 450 kts 234°
2026-05-03 21:36 11.52032 108.01933 23954 ft 450 kts 234°
2026-05-03 21:36 11.50214 107.99328 23952 ft 450 kts 234°
2026-05-03 21:36 11.48404 107.96730 23953 ft 450 kts 234°
2026-05-03 21:36 11.46586 107.94119 23942 ft 451 kts 234°
2026-05-03 21:37 11.44771 107.91512 23936 ft 451 kts 234°
2026-05-03 21:37 11.42971 107.88927 23935 ft 451 kts 234°
2026-05-03 21:37 11.41149 107.86317 23938 ft 451 kts 234°
2026-05-03 21:37 11.39324 107.83705 23936 ft 451 kts 234°
2026-05-03 21:38 11.37505 107.81103 23935 ft 451 kts 233°
2026-05-03 21:38 11.35677 107.78493 23932 ft 451 kts 233°
2026-05-03 21:38 11.33853 107.75880 23917 ft 451 kts 234°
2026-05-03 21:38 11.32059 107.73311 23913 ft 451 kts 234°
2026-05-03 21:39 11.30238 107.70704 23910 ft 450 kts 234°
2026-05-03 21:39 11.28419 107.68103 23910 ft 450 kts 234°
2026-05-03 21:39 11.26601 107.65497 23911 ft 450 kts 234°
2026-05-03 21:39 11.24781 107.62888 23913 ft 450 kts 234°
2026-05-03 21:40 11.22909 107.60372 23898 ft 450 kts 227°
2026-05-03 21:40 11.20717 107.58122 23633 ft 445 kts 224°
2026-05-03 21:40 11.18472 107.55913 22546 ft 448 kts 223°
2026-05-03 21:40 11.16215 107.53690 21347 ft 455 kts 223°
2026-05-03 21:41 11.13938 107.51431 20454 ft 453 kts 223°
2026-05-03 21:41 11.11734 107.49238 19755 ft 447 kts 223°
2026-05-03 21:41 11.09518 107.47033 18991 ft 444 kts 223°
2026-05-03 21:41 11.07323 107.44848 18247 ft 440 kts 223°
2026-05-03 21:42 11.05149 107.42677 17511 ft 433 kts 223°
2026-05-03 21:42 11.03023 107.40555 17091 ft 420 kts 223°
2026-05-03 21:42 11.01109 107.38362 16796 ft 407 kts 235°
2026-05-03 21:42 10.99922 107.35804 16558 ft 394 kts 253°
2026-05-03 21:43 10.99310 107.33165 16373 ft 380 kts 257°
2026-05-03 21:43 10.98746 107.30592 16190 ft 366 kts 255°
2026-05-03 21:43 10.98120 107.28130 16021 ft 352 kts 253°
2026-05-03 21:43 10.97285 107.25850 15841 ft 337 kts 238°
2026-05-03 21:44 10.95774 107.24095 15477 ft 326 kts 214°
2026-05-03 21:44 10.93760 107.23166 14973 ft 321 kts 189°
2026-05-03 21:44 10.91556 107.23196 14517 ft 316 kts 168°
2026-05-03 21:44 10.89419 107.23651 14166 ft 311 kts 167°
2026-05-03 21:45 10.87299 107.24074 13781 ft 308 kts 171°
2026-05-03 21:45 10.85186 107.24075 13330 ft 307 kts 186°
2026-05-03 21:45 10.83083 107.23716 12842 ft 307 kts 195°
2026-05-03 21:45 10.81164 107.22772 12128 ft 313 kts 216°
2026-05-03 21:46 10.79682 107.21119 11481 ft 321 kts 238°
2026-05-03 21:46 10.78759 107.19052 11129 ft 316 kts 253°
2026-05-03 21:46 10.78570 107.16864 10680 ft 311 kts 281°
2026-05-03 21:46 10.79210 107.14782 10168 ft 307 kts 294°
2026-05-03 21:47 10.79995 107.12798 9684 ft 306 kts 294°
2026-05-03 21:47 10.80750 107.10753 9152 ft 304 kts 291°
2026-05-03 21:47 10.81432 107.08745 8669 ft 301 kts 290°
2026-05-03 21:47 10.82082 107.06732 8123 ft 299 kts 289°
2026-05-03 21:48 10.82706 107.04725 7611 ft 296 kts 289°
2026-05-03 21:48 10.83319 107.02725 7109 ft 293 kts 288°
2026-05-03 21:48 10.83911 107.00782 6666 ft 289 kts 288°
2026-05-03 21:48 10.84503 106.98836 6202 ft 286 kts 288°
2026-05-03 21:49 10.85086 106.96901 5710 ft 284 kts 287°
2026-05-03 21:49 10.85651 106.95004 5220 ft 282 kts 287°
2026-05-03 21:49 10.86214 106.93088 4760 ft 280 kts 286°
2026-05-03 21:49 10.86771 106.91194 4263 ft 279 kts 286°
2026-05-03 21:50 10.87196 106.89272 3761 ft 278 kts 279°
2026-05-03 21:50 10.87509 106.87313 3293 ft 280 kts 278°
2026-05-03 21:50 10.87815 106.85357 2803 ft 278 kts 278°
2026-05-03 21:50 10.88118 106.83454 2354 ft 274 kts 278°
2026-05-03 21:51 10.88179 106.81536 2045 ft 266 kts 261°
2026-05-03 21:51 10.87724 106.79769 1971 ft 250 kts 248°
2026-05-03 21:51 10.87080 106.78217 1944 ft 231 kts 244°
2026-05-03 21:51 10.86453 106.76779 1964 ft 218 kts 246°
2026-05-03 21:52 10.85915 106.75424 1909 ft 197 kts 248°
2026-05-03 21:52 10.85436 106.74162 1657 ft 186 kts 249°
2026-05-03 21:52 10.84988 106.72971 1439 ft 172 kts 248°
2026-05-03 21:52 10.84586 106.71901 1184 ft 153 kts 248°
2026-05-03 21:53 10.84211 106.70903 971 ft 153 kts 248°
2026-05-03 21:53 10.83829 106.69887 793 ft 154 kts 248°
2026-05-03 21:53 10.83450 106.68873 599 ft 153 kts 248°
2026-05-03 21:53 10.83069 106.67855 415 ft 153 kts 249°
2026-05-03 21:54 10.82688 106.66844 197 ft 151 kts 247°
2026-05-03 21:54 10.82311 106.65851 57 ft 148 kts 249°
2026-05-03 21:54 10.81969 106.64955 40 ft 114 kts 250°
2026-05-03 21:54 10.81792 106.64481 42 ft 30 kts 242°
2026-05-03 21:55 10.81681 106.64358 40 ft 22 kts 214°
2026-05-03 21:55 10.81542 106.64289 38 ft 21 kts 161°
2026-05-03 21:55 10.81410 106.64345 43 ft 21 kts 160°
2026-05-03 21:55 10.81302 106.64383 42 ft 10 kts 160°
2026-05-03 21:56 10.81247 106.64431 42 ft 12 kts 98°
2026-05-03 21:56 10.81273 106.64521 45 ft 15 kts 68°
2026-05-03 21:56 10.81313 106.64623 46 ft 16 kts 69°
2026-05-03 21:56 10.81356 106.64736 46 ft 18 kts 69°
2026-05-03 21:57 10.81403 106.64860 48 ft 20 kts 69°
2026-05-03 21:57 10.81452 106.64991 44 ft 20 kts 69°
2026-05-03 21:57 10.81504 106.65129 41 ft 21 kts 69°
2026-05-03 21:57 10.81559 106.65273 42 ft 22 kts 69°
2026-05-03 21:58 10.81595 106.65409 40 ft 15 kts 124°
2026-05-03 21:58 10.81498 106.65455 42 ft 16 kts 163°
2026-05-03 21:58 10.81407 106.65499 42 ft 13 kts 104°
2026-05-03 21:58 10.81431 106.65590 42 ft 14 kts 68°
2026-05-03 21:59 10.81470 106.65676 41 ft 12 kts 24°
2026-05-03 21:59 10.81499 106.65671 42 ft 2 kts 338°
2026-05-03 21:59 10.81514 106.65665 42 ft 3 kts 339°
2026-05-03 21:59 10.81519 106.65663 42 ft 0 kts 339°